Bangkok (Suvarnabhumi), Thailand

8:18 PM ICT on December 14, 2019 (GMT +0700)
Bangkok (Suvarnabhumi)

Weather History for VTBS - November, 2019

Change the Weather History Date:

Saturday, November 16, 2019

  Actual Average (VTBU) Record (VTBU)
Temperature  
Mean Temperature 84 °F -  
Max Temperature 94 °F 89 °F 93 °F (1999)
Min Temperature 74 °F 70 °F 71 °F (1996)
Cooling Degree Days 19    
Growing Degree Days 34 (Base 50)    
Moisture  
Dew Point 70 °F    
Average Humidity 65    
Maximum Humidity 89    
Minimum Humidity 33    
Precipitation  
Precipitation 0.00 in 0.05 in - ()
Sea Level Pressure  
Sea Level Pressure 29.86 in    
Wind  
Wind Speed 4 mph ()    
Max Wind Speed 9 mph    
Max Gust Speed 21 mph    
Visibility 4.9 miles    
Events      
Averages and records for this station are not official NWS values.
T = Trace of Precipitation, MM = Missing Value Source: Averaged Metar Reports

Daily Weather History Graph

Daily Weather History Graph

Search for Another Location

Airport or City:

Astronomy

Nov. 16, 2019 Rise Set
Actual Time 6:15 AM ICT 5:45 PM ICT
Civil Twilight 5:53 AM ICT 6:08 PM ICT
Nautical Twilight 5:27 AM ICT 6:34 PM ICT
Astronomical Twilight 5:01 AM ICT 6:59 PM ICT
Moon 9:04 PM ICT (11/16) 9:23 AM ICT (11/16)
Length of Visible Light 12h 15m
Length of Day
11h 30m
Waning Gibbous, 86% of the Moon is Illuminated
Nov 16
Waning Gibbous
Nov 20
Last Quarter
Nov 26
New
Dec 4
First Quarter
Dec 12
Full

Hourly Weather History & Observations

Time (ICT) Temp. Heat Index Dew Point Humidity Pressure Visibility Wind Dir Wind Speed Gust Speed Precip Events Conditions
12:30 AM 82.4 °F 88.2 °F 73.4 °F 74% 29.89 in 5.6 mi East 4.6 mph - N/A   Partly Cloudy
1:00 AM 81 °F - 68 °F 57% 29.86 in 1 mi ENE 3.5 mph - -   Mist
1:00 AM 80.6 °F 85.4 °F 73.4 °F 79% 29.89 in 5.6 mi East 5.8 mph - N/A   Partly Cloudy
2:00 AM 78.8 °F - 71.6 °F 78% 29.86 in 5.6 mi ENE 3.5 mph - N/A   Partly Cloudy
2:30 AM 78.8 °F - 71.6 °F 78% 29.86 in 5.6 mi ENE 3.5 mph - N/A   Partly Cloudy
3:00 AM 77.0 °F - 71.6 °F 83% 29.86 in 5.6 mi NNE 3.5 mph - N/A   Partly Cloudy
3:30 AM 78.8 °F - 71.6 °F 78% 29.86 in 5.6 mi NE 4.6 mph - N/A   Partly Cloudy
4:00 AM 77 °F - 69 °F 69% 29.84 in 1 mi Calm Calm - -   Mist
4:00 AM 78.8 °F - 71.6 °F 78% 29.83 in 5.0 mi ENE 4.6 mph - N/A   Partly Cloudy
4:30 AM 75.2 °F - 71.6 °F 89% 29.86 in 5.0 mi Calm Calm - N/A   Partly Cloudy
5:00 AM 75.2 °F - 71.6 °F 89% 29.86 in 5.0 mi NNE 3.5 mph - N/A   Partly Cloudy
6:00 AM 77.0 °F - 71.6 °F 83% 29.86 in 5.0 mi ENE 5.8 mph - N/A   Partly Cloudy
6:30 AM 75.2 °F - 71.6 °F 89% 29.89 in 4.3 mi ENE 4.6 mph - N/A   Partly Cloudy
7:00 AM 75 °F - 71 °F 84% 29.88 in 2 mi East 3.5 mph - -   Mist
7:00 AM 77.0 °F - 71.6 °F 83% 29.89 in 4.3 mi ENE 3.5 mph - N/A   Partly Cloudy
8:00 AM 78.8 °F - 71.6 °F 78% 29.92 in 5.0 mi ENE 5.8 mph - N/A   Partly Cloudy
8:30 AM 82.4 °F 87.2 °F 71.6 °F 70% 29.92 in 5.6 mi NE 4.6 mph - N/A   Partly Cloudy
9:00 AM 84.2 °F 88.4 °F 69.8 °F 62% 29.92 in 5.6 mi NE 5.8 mph - N/A   Partly Cloudy
9:30 AM 86.0 °F 90.4 °F 69.8 °F 58% 29.92 in 5.6 mi NE 4.6 mph - N/A   Partly Cloudy
10:00 AM 89 °F - 70 °F 44% 29.91 in 2 mi ENE 9.2 mph - -   Haze
10:30 AM 87.8 °F 92.6 °F 69.8 °F 55% 29.92 in 5.6 mi NE 8.1 mph - N/A   Partly Cloudy
11:00 AM 87.8 °F 92.6 °F 69.8 °F 55% 29.89 in 5.6 mi ENE 6.9 mph - N/A   Partly Cloudy
11:30 AM 87.8 °F 93.8 °F 71.6 °F 58% 29.89 in 5.6 mi East 6.9 mph - N/A   Partly Cloudy
12:30 PM 89.6 °F 94.7 °F 69.8 °F 52% 29.86 in 5.6 mi ENE 6.9 mph - N/A   Partly Cloudy
1:00 PM 92 °F - 71 °F 41% 29.82 in 4 mi Calm Calm - -   Haze
1:30 PM 91.4 °F 94.0 °F 66.2 °F 43% 29.83 in 5.6 mi East 5.8 mph - N/A   Partly Cloudy
2:00 PM 91.4 °F 94.0 °F 66.2 °F 43% 29.80 in 5.6 mi ENE 8.1 mph - N/A   Partly Cloudy
2:30 PM 91.4 °F 93.2 °F 64.4 °F 41% 29.80 in 5.6 mi ENE 8.1 mph 20.7 mph N/A   Partly Cloudy
3:00 PM 91.4 °F 93.2 °F 64.4 °F 41% 29.80 in 5.6 mi ENE 6.9 mph - N/A   Partly Cloudy
4:00 PM 94 °F - 68 °F 33% 29.78 in 2 mi East 3.5 mph - -   Haze
4:00 PM 91.4 °F 94.0 °F 66.2 °F 43% 29.80 in 5.6 mi ENE 6.9 mph - N/A   Partly Cloudy
4:30 PM 91.4 °F 94.0 °F 66.2 °F 43% 29.80 in 5.6 mi NE 6.9 mph - N/A   Partly Cloudy
5:30 PM 87.8 °F 90.4 °F 66.2 °F 49% 29.80 in 5.6 mi North 3.5 mph - N/A   Partly Cloudy
6:00 PM 86.0 °F 89.4 °F 68.0 °F 55% 29.80 in 5.0 mi North 4.6 mph - N/A   Partly Cloudy
7:00 PM 85 °F - 72 °F 56% 29.84 in 2 mi Calm Calm - -   Mist
7:00 PM 84.2 °F 87.3 °F 68.0 °F 58% 29.83 in 5.6 mi North 5.8 mph - N/A   Partly Cloudy
7:30 PM 82.4 °F 85.4 °F 68.0 °F 62% 29.83 in 6.2 mi North 4.6 mph - N/A   Partly Cloudy
8:30 PM 84.2 °F 89.6 °F 71.6 °F 66% 29.86 in 6.2 mi SSW 5.8 mph - N/A   Scattered Clouds
9:00 PM 82.4 °F 88.2 °F 73.4 °F 74% 29.89 in 6.2 mi SSW 3.5 mph - N/A   Scattered Clouds
9:30 PM 80.6 °F 85.4 °F 73.4 °F 79% 29.89 in 6.2 mi SSW 3.5 mph - N/A   Partly Cloudy
10:00 PM 83 °F - 72 °F 61% 29.88 in 1 mi Calm Calm - -   Mist
10:00 PM 80.6 °F 85.4 °F 73.4 °F 79% 29.89 in 6.2 mi SW 3.5 mph - N/A   Partly Cloudy
10:30 PM 80.6 °F 84.6 °F 71.6 °F 74% 29.89 in 6.2 mi SW 3.5 mph - N/A   Partly Cloudy
11:30 PM 78.8 °F - 73.4 °F 83% 29.89 in 5.6 mi SW 3.5 mph - N/A   Partly Cloudy